When you browse on this site, cookies collect data to enhance your experience and personalize the content and advertising you see.
Visit our Privacy Policy to learn more. By continuing to use the site, you agree to this use of cookies and data.
  • In Österreich
  • Länderverzeichnis
  • Für 7 Tage
  • Wassertemperatur
  • Satellitenkarten
  • Wetterkarte
  • News
  • Widgets
  • user-avatar
    Anmelden

    Stündliche Wetter Kryl

    Heute, 16 Februar, Samstag

    Zeit Temperatur Niederschläge Wind Luftdruck Luftfeuchtigkeit
    00:00 +4°C° 0 mm 1 m/S 761 mmHg 78%
    01:00 +4°C° 0 mm 1 m/S 761 mmHg 76%
    02:00 +4°C° 0 mm 1 m/S 761 mmHg 76%
    03:00 +3°C° 0 mm 2 m/S 760 mmHg 76%
    04:00 +3°C° 0 mm 2 m/S 760 mmHg 76%
    05:00 +2°C° 0 mm 2 m/S 760 mmHg 76%
    06:00 +2°C° 0 mm 2 m/S 759 mmHg 77%
    07:00 +2°C° 0 mm 2 m/S 759 mmHg 76%
    08:00 +2°C° 0 mm 3 m/S 759 mmHg 70%
    09:00 +4°C° 0 mm 3 m/S 759 mmHg 64%
    10:00 +7°C° 0 mm 3 m/S 759 mmHg 58%
    11:00 +7°C° 0 mm 4 m/S 758 mmHg 54%
    12:00 +10°C° 0 mm 4 m/S 758 mmHg 49%
    13:00 +12°C° 0 mm 3 m/S 758 mmHg 44%
    14:00 +12°C° 0 mm 3 m/S 758 mmHg 46%
    15:00 +12°C° 0 mm 3 m/S 757 mmHg 48%
    16:00 +12°C° 0 mm 3 m/S 757 mmHg 51%
    17:00 +10°C° 0 mm 3 m/S 757 mmHg 56%
    18:00 +9°C° 0 mm 3 m/S 757 mmHg 62%
    19:00 +8°C° 0 mm 3 m/S 757 mmHg 68%
    20:00 +7°C° 0 mm 3 m/S 757 mmHg 70%
    21:00 +7°C° 0 mm 3 m/S 757 mmHg 72%
    22:00 +5°C° 0 mm 3 m/S 757 mmHg 74%
    23:00 +4°C° 0 mm 3 m/S 757 mmHg 77%

    Morgen, 17 Februar, Sonntag

    Zeit Temperatur Niederschläge Wind Luftdruck Luftfeuchtigkeit
    00:00 +4°C° 0 mm 3 m/S 757 mmHg 80%
    01:00 +4°C° 0 mm 2 m/S 757 mmHg 82%
    02:00 +4°C° 0 mm 2 m/S 757 mmHg 84%
    03:00 +3°C° 0 mm 2 m/S 757 mmHg 86%
    04:00 +3°C° 0 mm 2 m/S 757 mmHg 88%
    05:00 +3°C° 0 mm 2 m/S 757 mmHg 89%
    06:00 +2°C° 0 mm 2 m/S 757 mmHg 90%
    07:00 +2°C° 0 mm 2 m/S 757 mmHg 91%
    08:00 +3°C° 0 mm 2 m/S 757 mmHg 85%
    09:00 +5°C° 0 mm 2 m/S 757 mmHg 80%
    10:00 +6°C° 0 mm 2 m/S 758 mmHg 74%
    11:00 +7°C° 0 mm 2 m/S 757 mmHg 69%
    12:00 +9°C° 0 mm 2 m/S 757 mmHg 63%
    13:00 +10°C° 0 mm 2 m/S 757 mmHg 58%
    14:00 +11°C° 0 mm 1 m/S 757 mmHg 59%
    15:00 +11°C° 0 mm 1 m/S 757 mmHg 60%
    16:00 +11°C° 0 mm 1 m/S 756 mmHg 61%
    17:00 +10°C° 0 mm 1 m/S 756 mmHg 64%
    18:00 +9°C° 0 mm 1 m/S 756 mmHg 68%
    19:00 +7°C° 0 mm 1 m/S 756 mmHg 72%
    20:00 +7°C° 0 mm 1 m/S 756 mmHg 73%
    21:00 +7°C° 0 mm 1 m/S 756 mmHg 75%
    22:00 +6°C° 0 mm 1 m/S 756 mmHg 76%
    23:00 +5°C° 0 mm 2 m/S 756 mmHg 77%

    übermorgen, 18 Februar, Montag

    Zeit Temperatur Niederschläge Wind Luftdruck Luftfeuchtigkeit
    00:00 +4°C° 0 mm 2 m/S 756 mmHg 78%
    01:00 +4°C° 0 mm 2 m/S 756 mmHg 78%
    02:00 +4°C° 0 mm 2 m/S 755 mmHg 78%
    03:00 +3°C° 0 mm 2 m/S 755 mmHg 78%
    04:00 +3°C° 0 mm 2 m/S 755 mmHg 78%
    05:00 +3°C° 0 mm 2 m/S 755 mmHg 79%
    06:00 +2°C° 0 mm 2 m/S 755 mmHg 80%
    07:00 +2°C° 0 mm 2 m/S 754 mmHg 81%
    08:00 +3°C° 0 mm 2 m/S 754 mmHg 75%
    09:00 +5°C° 0 mm 2 m/S 755 mmHg 68%
    10:00 +6°C° 0 mm 2 m/S 755 mmHg 62%
    11:00 +7°C° 0 mm 2 m/S 754 mmHg 57%
    12:00 +9°C° 0 mm 2 m/S 754 mmHg 52%
    13:00 +10°C° 0 mm 2 m/S 754 mmHg 48%
    14:00 +10°C° 0 mm 2 m/S 754 mmHg 49%
    15:00 +10°C° 0 mm 2 m/S 753 mmHg 50%
    16:00 +10°C° 0 mm 2 m/S 753 mmHg 52%
    17:00 +9°C° 0 mm 2 m/S 753 mmHg 57%
    18:00 +8°C° 0 mm 2 m/S 753 mmHg 62%
    19:00 +6°C° 0 mm 2 m/S 753 mmHg 67%
    20:00 +6°C° 0 mm 2 m/S 753 mmHg 69%
    21:00 +5°C° 0 mm 2 m/S 752 mmHg 71%
    22:00 +5°C° 0 mm 2 m/S 752 mmHg 72%
    23:00 +4°C° 0 mm 3 m/S 752 mmHg 74%

    19 Februar, Dienstag

    Zeit Temperatur Niederschläge Wind Luftdruck Luftfeuchtigkeit
    00:00 +3°C° 0 mm 3 m/S 752 mmHg 75%
    01:00 +3°C° 0 mm 3 m/S 752 mmHg 76%
    02:00 +3°C° 0 mm 3 m/S 752 mmHg 78%
    03:00 +3°C° 0 mm 3 m/S 751 mmHg 79%
    04:00 +2°C° 0 mm 3 m/S 751 mmHg 81%
    05:00 +2°C° 0 mm 3 m/S 751 mmHg 80%
    06:00 +2°C° 0 mm 3 m/S 751 mmHg 79%
    07:00 +2°C° 0 mm 3 m/S 750 mmHg 78%
    08:00 +3°C° 0 mm 4 m/S 750 mmHg 72%
    09:00 +5°C° 0 mm 4 m/S 750 mmHg 67%
    10:00 +6°C° 0 mm 5 m/S 750 mmHg 61%
    11:00 +7°C° 0 mm 5 m/S 750 mmHg 59%
    12:00 +8°C° 0 mm 5 m/S 750 mmHg 57%
    13:00 +9°C° 0 mm 6 m/S 750 mmHg 55%
    14:00 +8°C° 0.2 mm 6 m/S 750 mmHg 63%
    15:00 +7°C° 0.2 mm 6 m/S 749 mmHg 71%
    16:00 +7°C° 0.2 mm 5 m/S 749 mmHg 80%
    17:00 +6°C° 0 mm 5 m/S 750 mmHg 81%
    18:00 +5°C° 0 mm 4 m/S 750 mmHg 83%
    19:00 +5°C° 0 mm 4 m/S 751 mmHg 84%
    20:00 +5°C° 0 mm 4 m/S 751 mmHg 84%
    21:00 +4°C° 0 mm 4 m/S 752 mmHg 85%
    22:00 +4°C° 0 mm 4 m/S 752 mmHg 85%
    23:00 +4°C° 0 mm 4 m/S 752 mmHg 85%

    20 Februar, Mittwoch

    Zeit Temperatur Niederschläge Wind Luftdruck Luftfeuchtigkeit
    00:00 +3°C° 0 mm 4 m/S 752 mmHg 86%
    01:00 +3°C° 0 mm 4 m/S 753 mmHg 87%
    02:00 +3°C° 0 mm 4 m/S 753 mmHg 88%
    03:00 +1°C° 0 mm 4 m/S 753 mmHg 90%
    04:00 +1°C° 0 mm 4 m/S 753 mmHg 92%
    05:00 +1°C° 0 mm 4 m/S 753 mmHg 92%
    06:00 0°C° 0 mm 4 m/S 753 mmHg 92%
    07:00 0°C° 0 mm 4 m/S 754 mmHg 92%
    08:00 +1°C° 0 mm 4 m/S 754 mmHg 88%
    09:00 +2°C° 0 mm 5 m/S 754 mmHg 84%
    10:00 +3°C° 0 mm 5 m/S 755 mmHg 79%
    11:00 +5°C° 0 mm 5 m/S 755 mmHg 75%
    12:00 +5°C° 0 mm 5 m/S 755 mmHg 70%
    13:00 +6°C° 0 mm 5 m/S 755 mmHg 66%
    14:00 +6°C° 0 mm 5 m/S 755 mmHg 67%
    15:00 +6°C° 0 mm 4 m/S 755 mmHg 68%
    16:00 +7°C° 0 mm 4 m/S 755 mmHg 70%
    17:00 +7°C° 0 mm 3 m/S 756 mmHg 73%
    18:00 +7°C° 0 mm 3 m/S 756 mmHg 76%
    19:00 +5°C° 0 mm 3 m/S 756 mmHg 79%
    20:00 +5°C° 0 mm 3 m/S 756 mmHg 82%
    21:00 +4°C° 0 mm 3 m/S 756 mmHg 85%
    22:00 +4°C° 0 mm 3 m/S 756 mmHg 87%
    23:00 +4°C° 0 mm 3 m/S 756 mmHg 88%

    21 Februar, Donnerstag

    Zeit Temperatur Niederschläge Wind Luftdruck Luftfeuchtigkeit
    00:00 +3°C° 0 mm 3 m/S 757 mmHg 89%
    01:00 +3°C° 0 mm 3 m/S 757 mmHg 89%
    02:00 +3°C° 0.2 mm 3 m/S 756 mmHg 89%
    03:00 +3°C° 0.2 mm 3 m/S 756 mmHg 89%
    04:00 +4°C° 0.2 mm 3 m/S 756 mmHg 89%
    05:00 +4°C° 0.2 mm 3 m/S 756 mmHg 89%
    06:00 +4°C° 0.2 mm 3 m/S 756 mmHg 89%
    07:00 +4°C° 0.2 mm 3 m/S 756 mmHg 89%
    08:00 +4°C° 0 mm 3 m/S 756 mmHg 85%
    09:00 +5°C° 0 mm 4 m/S 756 mmHg 80%
    10:00 +6°C° 0 mm 4 m/S 756 mmHg 76%
    11:00 +6°C° 0 mm 4 m/S 756 mmHg 75%
    12:00 +7°C° 0 mm 4 m/S 755 mmHg 74%
    13:00 +7°C° 0 mm 5 m/S 755 mmHg 73%
    14:00 +7°C° 0.5 mm 4 m/S 755 mmHg 78%
    15:00 +6°C° 0.5 mm 4 m/S 755 mmHg 83%
    16:00 +6°C° 0.5 mm 4 m/S 755 mmHg 87%
    17:00 +6°C° 0.2 mm 4 m/S 755 mmHg 88%
    18:00 +6°C° 0.2 mm 4 m/S 755 mmHg 88%
    19:00 +7°C° 0.2 mm 3 m/S 755 mmHg 88%
    20:00 +7°C° 0.2 mm 3 m/S 755 mmHg 89%
    21:00 +6°C° 0.2 mm 4 m/S 755 mmHg 89%
    22:00 +6°C° 0.2 mm 4 m/S 755 mmHg 90%
    23:00 +6°C° 0.8 mm 4 m/S 755 mmHg 91%
    Mehr zeigen